This is the latest recevied weather packets stored in our database for station/object KC2TER. If no packets are shown the sender has not sent any weather packets the latest 10 day(s).
| Time | Temp. | Humidity | Pressure | Rain* | Wind** | Luminosity | Snow |
|---|---|---|---|---|---|---|---|
| 1778108463 | 20.56° C | 78% | 1007.6 hPa | 0 mm | - | 26 W/m² | - |
| 1778108159 | 20.56° C | 77% | 1007.6 hPa | 0 mm | - | 34 W/m² | - |
| 1778107855 | 20.56° C | 77% | 1007.5 hPa | 0 mm | - | 42 W/m² | - |
| 1778107553 | 20.56° C | 77% | 1007.3 hPa | 0 mm | - | 54 W/m² | - |
| 1778107249 | 20.56° C | 77% | 1007.6 hPa | 0 mm | - | 60 W/m² | - |
| 1778106945 | 20.56° C | 77% | 1007.2 hPa | 0 mm | - | 53 W/m² | - |
| 1778106642 | 20.56° C | 77% | 1007.4 hPa | 0 mm | - | 65 W/m² | - |
| 1778106339 | 20.56° C | 77% | 1007.5 hPa | 0 mm | - | 66 W/m² | - |
| 1778106035 | 20.56° C | 77% | 1007.5 hPa | 0 mm | - | 94 W/m² | - |
| 1778105732 | 20° C | 78% | 1007.4 hPa | 0 mm | - | 44 W/m² | - |
| 1778105430 | 20° C | 78% | 1007.4 hPa | 0 mm | - | 38 W/m² | - |
| 1778105126 | 20° C | 78% | 1007.4 hPa | 0 mm | - | 27 W/m² | - |
| 1778104822 | 20.56° C | 78% | 1007.4 hPa | 0 mm | - | 28 W/m² | - |
| 1778104519 | 20.56° C | 78% | 1007.4 hPa | 0 mm | - | 46 W/m² | - |
| 1778104214 | 20.56° C | 78% | 1007.3 hPa | 0 mm | - | 61 W/m² | - |
| 1778103912 | 20.56° C | 78% | 1007.2 hPa | 0 mm | - | 94 W/m² | - |
| 1778103609 | 20° C | 79% | 1007.2 hPa | 0 mm | - | 114 W/m² | - |
| 1778103307 | 20° C | 79% | 1006.9 hPa | 0 mm | - | 100 W/m² | - |
| 1778103004 | 20° C | 80% | 1007.4 hPa | 0 mm | - | 48 W/m² | - |
| 1778102700 | 20° C | 80% | 1007.2 hPa | 0 mm | - | 41 W/m² | - |
| 1778102394 | 20° C | 79% | 1006.9 hPa | 0 mm | - | 53 W/m² | - |
| 1778102091 | 20° C | 80% | 1006.9 hPa | 0 mm | - | 110 W/m² | - |
| 1778101788 | 20° C | 80% | 1006.7 hPa | 0 mm | - | 121 W/m² | - |
| 1778101484 | 20° C | 80% | 1006.8 hPa | 0 mm | - | 124 W/m² | - |
| 1778101182 | 20° C | 80% | 1006.8 hPa | 0 mm | - | 145 W/m² | - |
* Rain latest hour (hover to see other rain measurements)
** Current wind speed in m/s (hover to see current wind gust speed)